Taba International, Egypt

1:51 PM EET on February 25, 2018 (GMT +0200)
Taba International

Weather History for HETB - November, 2012

Change the Weather History Date:

Wednesday, November 7, 2012

  Actual Average Record
Temperature  
Mean Temperature 70 °F -  
Max Temperature 80 °F - - ()
Min Temperature 60 °F - - ()
Cooling Degree Days 5    
Growing Degree Days 20 (Base 50)    
Moisture  
Dew Point 55 °F    
Average Humidity 67    
Maximum Humidity 100    
Minimum Humidity 30    
Precipitation  
Precipitation 0.00 in - - ()
Sea Level Pressure  
Sea Level Pressure 30.08 in    
Wind  
Wind Speed 4 mph ()    
Max Wind Speed 10 mph    
Max Gust Speed -    
Visibility 2.8 miles    
Events      
T = Trace of Precipitation, MM = Missing Value Source: Averaged Metar Reports

Daily Weather History Graph

Daily Weather History Graph

Search for Another Location

Airport or City:

Trip Planner

Search our weather history database for the weather conditions in past years. The results will help you decide how hot, cold, wet, or windy it might be!

Date:

Astronomy

Nov. 07, 2012 Rise Set
Actual Time 5:58 AM EET 4:49 PM EET
Civil Twilight 5:34 AM EET 5:14 PM EET
Nautical Twilight 5:05 AM EET 5:43 PM EET
Astronomical Twilight 4:37 AM EET 6:11 PM EET
Moon No Moon Rise 12:18 PM EET (11/7)
Length of Visible Light 11h 40m
Length of Day
10h 50m
Last Quarter, 46% of the Moon is Illuminated
Nov 7
Last Quarter
Nov 14
New
Nov 20
First Quarter
Nov 28
Full
Dec 6
Last Quarter

Hourly Weather History & Observations

Time (EET) Temp. Dew Point Humidity Pressure Visibility Wind Dir Wind Speed Gust Speed Precip Events Conditions
12:00 AM 64.4 °F 57.2 °F 77% 30.12 in - Calm Calm - N/A   Clear
1:00 AM 62.6 °F 57.2 °F 82% 30.09 in - Calm Calm - N/A   Clear
2:00 AM 62.6 °F 57.2 °F 82% 30.09 in - WNW 6.9 mph - N/A   Clear
3:00 AM 62.6 °F 57.2 °F 82% 30.06 in - NW 6.9 mph - N/A   Clear
4:00 AM 60.8 °F 57.2 °F 88% 30.06 in - NW 6.9 mph - N/A   Clear
5:00 AM 60.8 °F 59.0 °F 94% 30.09 in - Calm Calm - N/A   Clear
6:00 AM 60.8 °F 60.8 °F 100% 30.12 in 0.7 mi WNW 8.1 mph - N/A   Mist
7:00 AM 62.6 °F 60.8 °F 94% 30.12 in 1.9 mi WNW 8.1 mph - N/A   Mist
8:00 AM 62.6 °F 60.8 °F 94% 30.12 in 2.5 mi WNW 2.3 mph - N/A   Mist
9:00 AM 68.0 °F 59.0 °F 73% 30.12 in - Calm Calm - N/A   Clear
10:00 AM 71.6 °F 55.4 °F 57% 30.12 in - WNW 4.6 mph - N/A   Clear
11:00 AM 75.2 °F 51.8 °F 44% 30.09 in - NNW 8.1 mph - N/A   Clear
12:00 PM 75.2 °F 51.8 °F 44% 30.06 in - NNW 8.1 mph - N/A   Clear
1:00 PM 78.8 °F 50.0 °F 36% 30.06 in - NW 5.8 mph - N/A   Clear
2:00 PM 80.6 °F 46.4 °F 30% 30.04 in - NNW 3.5 mph - N/A   Clear
3:00 PM 80.6 °F 46.4 °F 30% 30.04 in - NW 8.1 mph - N/A   Clear
4:00 PM 78.8 °F 48.2 °F 34% 30.04 in 6.2 mi North 10.4 mph - N/A   Partly Cloudy
5:00 PM 75.2 °F 50.0 °F 41% 30.04 in - North 9.2 mph - N/A   Clear
6:00 PM 73.4 °F 48.2 °F 41% 30.06 in - North 8.1 mph - N/A   Clear
7:00 PM 71.6 °F 48.2 °F 43% 30.06 in - WNW 3.5 mph - N/A   Clear
8:00 PM 68.0 °F 53.6 °F 60% 30.06 in - WNW 5.8 mph - N/A   Clear
9:00 PM 66.2 °F 60.8 °F 83% 30.09 in - WNW 8.1 mph - N/A   Clear
10:00 PM 64.4 °F 62.6 °F 94% 30.09 in - WNW 8.1 mph - N/A   Clear
11:00 PM 62.6 °F 60.8 °F 94% 30.06 in - WNW 1.2 mph - N/A   Clear